This demonstration page uses our WeatherBlox Daily Observations layout. Learn more.

Left ArrowRight Arrow

36.17497, -115.13722

Hourly Observations for March 27, 2016

Temp ( °F °C ) Dew Point ( °F °C ) Humidity (%) Winds ( mph kmh ) Pressure ( in mb ) Visibility ( mi km ) Precip ( " mm )
12:53 am 00:53 Clear 54 12.2 15 -9.4 21 21 WNW 8 13 30.06 1018 10 16.0934 0 0
1:53 am 01:53 Clear 51 10.6 16 -8.9 25 25 N 5 7 30.07 1018 10 16.0934 0 0
2:53 am 02:53 Clear 51 10.6 17 -8.3 26 26 Calm 30.07 1018 10 16.0934 0 0
3:53 am 03:53 Clear 50 10 16 -8.9 26 26 WNW 3 6 30.07 1018 10 16.0934 0 0
4:53 am 04:53 Clear 49 9.4 18 -7.8 29 29 NW 3 6 30.08 1019 10 16.0934 0 0
5:53 am 05:53 Clear 48 8.9 19 -7.2 32 32 NNW 5 7 30.09 1019 10 16.0934 0 0
6:53 am 06:53 Sunny 48 8.9 17 -8.3 29 29 Calm 30.1 1019 10 16.0934 0 0
7:53 am 07:53 Sunny 52 11.1 18 -7.8 26 26 Calm 30.11 1020 10 16.0934 0 0
8:53 am 08:53 Sunny 57 13.9 18 -7.8 22 22 S 3 6 30.11 1020 10 16.0934 0 0
9:53 am 09:53 Sunny 61 16.1 15 -9.4 17 17 SSE 6 9 30.11 1020 10 16.0934 0 0
10:53 am 10:53 Sunny 62 16.7 16 -8.9 17 17 VRB 3 6 30.11 1020 10 16.0934 0 0
11:53 am 11:53 Sunny 66 18.9 15 -9.4 14 14 ESE 8 13 30.09 1019 10 16.0934 0 0
12:53 pm 12:53 Sunny 67 19.4 15 -9.4 13 13 Calm 30.06 1018 10 16.0934 0 0
1:53 pm 13:53 Sunny 67 19.4 15 -9.4 13 13 Calm 30.03 1017 10 16.0934 0 0
2:53 pm 14:53 Sunny 69 20.6 14 -10 12 12 SE 6 9 29.99 1016 10 16.0934 0 0
3:53 pm 15:53 Sunny 71 21.7 14 -10 11 11 E 6 9 29.95 1014 10 16.0934 0 0
4:53 pm 16:53 Sunny 71 21.7 13 -10.6 10 10 ENE 8 13 29.93 1014 10 16.0934 0 0
5:53 pm 17:53 Sunny 70 21.1 13 -10.6 11 11 ESE 5 7 29.92 1013 10 16.0934 0 0
6:53 pm 18:53 Sunny 69 20.6 13 -10.6 11 11 ESE 5 7 29.89 1012 10 16.0934 0 0
7:53 pm 19:53 Clear 67 19.4 14 -10 13 13 N 5 7 29.88 1012 10 16.0934 0 0
8:53 pm 20:53 Clear 64 17.8 16 -8.9 15 15 NE 6 9 29.87 1012 10 16.0934 0 0
9:53 pm 21:53 Clear 64 17.8 13 -10.6 13 13 ENE 8 13 29.86 1011 10 16.0934 0 0
10:53 pm 22:53 Clear 60 15.6 18 -7.8 19 19 WNW 5 7 29.85 1011 10 16.0934 0 0
11:53 pm 23:53 Clear 60 15.6 20 -6.7 21 21 Calm 29.83 1010 10 16.0934 0 0

Powered by AerisWeather